BST,Max TemperatureF,Mean TemperatureF,Min TemperatureF,Max Dew PointF,MeanDew PointF,Min DewpointF,Max Humidity, Mean Humidity, Min Humidity, Max Sea Level PressureIn, Mean Sea Level PressureIn, Min Sea Level PressureIn, Max VisibilityMiles, Mean VisibilityMiles, Min VisibilityMiles, Max Wind SpeedMPH, Mean Wind SpeedMPH, Max Gust SpeedMPH,PrecipitationIn, CloudCover, Events, WindDirDegrees
2013-8-1,73,65,57,64,60,57,100,91,65,29.78,29.69,29.62,6,4,1,17,10,,0.04,7,Rain,92
2013-8-2,75,66,56,63,56,50,100,76,32,29.62,29.57,29.53,7,5,0,22,7,,0.04,4,Fog-Rain,185
2013-8-3,68,62,55,54,50,46,88,67,39,29.83,29.67,29.53,19,8,6,31,16,44,0.00,4,,239
2013-8-4,72,60,48,54,49,46,88,64,34,29.89,29.85,29.83,19,8,6,22,12,,0.00,3,,248
2013-8-5,61,54,48,54,52,48,100,85,62,29.88,29.79,29.74,19,7,6,7,3,,0.00,7,Rain,43
2013-8-6,67,57,47,50,47,44,88,66,39,29.96,29.91,29.83,6,6,6,15,9,,0.00,4,,257
2013-8-7,65,56,48,57,53,48,100,83,61,30.06,30.00,29.95,19,8,6,13,5,,0.04,6,Fog-Rain,61
2013-8-8,64,58,52,57,55,52,100,86,64,30.07,30.01,29.92,12,5,2,14,5,,0.00,6,,110
2013-8-9,70,60,50,57,52,46,94,74,50,30.06,29.95,29.86,19,8,6,21,6,,0.00,6,Rain,294
2013-8-10,64,56,47,50,47,43,87,66,47,30.09,30.04,29.95,6,6,6,15,9,,0.00,6,,264
2013-8-11,66,57,48,52,47,41,94,68,31,29.95,29.85,29.80,19,7,6,22,13,,0.00,3,,264
2013-8-12,64,56,48,52,48,44,94,74,39,29.98,29.86,29.80,6,6,6,14,11,,0.00,5,Rain,288
2013-8-13,64,56,48,48,45,39,93,64,36,30.12,30.05,29.98,6,6,6,13,9,,0.00,5,,276
2013-8-14,69,58,48,57,52,46,88,71,46,30.12,30.04,29.92,6,6,6,17,7,,0.00,6,,235
2013-8-15,69,64,59,63,60,57,100,88,63,29.91,29.79,29.71,16,7,3,21,10,,0.01,6,Rain,237
2013-8-16,71,62,52,61,52,49,94,71,41,29.85,29.78,29.71,12,7,6,23,11,,0.00,4,Rain,265
2013-8-17,70,60,50,61,54,49,94,81,57,29.83,29.52,29.36,19,7,4,23,11,,0.24,5,Rain,231
2013-8-18,66,58,51,50,47,44,88,67,36,29.77,29.55,29.42,19,7,6,28,17,37,0.00,3,,254
2013-8-19,67,58,48,50,47,43,94,68,32,30.12,29.95,29.77,19,7,6,26,13,31,0.00,4,Rain,256
2013-8-20,66,57,48,57,52,46,94,78,51,30.22,30.18,30.12,19,8,6,16,10,,0.08,6,Rain,244
2013-8-21,72,64,56,61,58,55,100,82,56,30.13,30.04,30.01,19,7,4,13,5,,0.00,6,Rain,237
2013-8-22,59,58,56,59,57,55,100,95,88,30.12,30.09,30.04,16,3,0,13,7,,0.00,8,Fog-Rain,70
2013-8-23,65,60,55,63,58,55,100,95,82,30.04,29.93,29.86,7,3,0,9,6,,0.02,7,Fog-Rain,95
2013-8-24,64,60,56,57,56,54,100,89,66,29.96,29.91,29.89,9,5,2,9,4,,0.04,8,Rain,298
2013-8-25,66,60,55,60,57,54,100,96,83,30.17,30.08,29.98,9,3,0,9,3,,0.00,6,Fog-Rain,51
2013-8-26,67,60,53,59,56,52,100,94,70,30.18,30.13,30.06,9,3,0,14,3,,0.00,4,Fog,113
2013-8-27,73,62,50,57,54,50,94,77,43,30.21,30.09,30.04,19,7,6,16,8,,0.00,6,,277
2013-8-28,60,56,51,56,50,45,88,76,60,30.24,30.16,30.04,19,7,6,15,9,,0.00,7,Rain,102
2013-8-29,66,58,50,55,52,44,94,76,57,30.05,29.99,29.98,19,7,6,20,11,,0.00,6,,256
2013-8-30,72,61,50,59,52,39,94,75,53,30.01,29.89,29.77,19,7,6,32,13,31,0.00,3,,257
2013-8-31,63,53,43,46,43,39,87,65,34,30.23,30.15,30.04,19,8,6,24,14,33,0.00,2,,262